Content
SEND FEEDBACK

Daily
Averages
Monthly
Summary
United States of America

YIGO, GUAM


Home > North America > United States > Guam
Elevation: 530 feet     Latitude: 13 32N     Longitude: 144 53E

WEATHER
 
SELECT A DAY
Number of Records: 213,810;   Date Range: 1/1/95 - 10/21/14
 
SHARE

PRINT THIS DATA

[ ← Previous Day ]
WEATHER ALMANAC - JANUARY 19, 2013
[ Next Day → ]
[ °C ]   °F
Weather ElementAverageHighLow
Temperature80.5 °F87.1 °F (12:54 pm)75.9 °F (6:54 am)
Dewpoint72.7 °F75.2 °F (6:33 pm)70 °F (10:54 am)
Humidity78.1 %94 % (6:50 pm)59 % (12:54 pm)
Barometer29.88 in29.94 in (8:54 am)29.81 in (2:54 pm)
Wind Speed13.8 mph20.7 mph (12:54 pm)
Wind Gust25.3 mph (11:54 am)
Weather ElementAverage
Visibility9.8 mi
Wind DirectionNE (44.6 °)

Weather ElementTotal
Precipitation---
Cooling Degree Days16.5 (Base 65)
Growing Degree Days31.5 (Base 50)
Averaged from 28 records on January 19, 2013
WEATHER CONDITIONS BREAKOUT
WIND DIRECTION BREAKOUT
WEATHER BY HOUR - JANUARY 19, 2013
[ °C ]   °F
Local TimeTemperatureDewpointHumidityBarometerVisibilityWind DirectionWind SpeedGust SpeedPrecipitationEventsConditions
1:54 AM77.0 °F71.1 °F82 %29.88 in10.0 miNNE (30°)5.8 mphOvercast
2:54 AM77.0 °F72.0 °F84 %29.87 in10.0 miNNE (30°)8.1 mphClear
3:54 AM77.0 °F72.0 °F84 %29.86 in10.0 miNNE (30°)9.2 mphPartly Cloudy
4:54 AM78.1 °F73.0 °F84 %29.88 in10.0 miNE (50°)12.7 mph0.00 inRainLight Rain
5:54 AM77.0 °F72.0 °F84 %29.88 in10.0 miNE (50°)11.5 mph0.00 inClear
6:54 AM75.9 °F72.0 °F87 %29.91 in10.0 miNE (40°)8.1 mphClear
7:54 AM80.1 °F72.0 °F76 %29.92 in10.0 miNE (40°)8.1 mphClear
8:54 AM82.9 °F72.0 °F69 %29.94 in10.0 miNE (50°)18.4 mphClear
9:54 AM84.0 °F71.1 °F65 %29.93 in10.0 miNE (50°)17.3 mphPartly Cloudy
10:54 AM84.9 °F70.0 °F61 %29.91 in10.0 miNE (50°)18.4 mphPartly Cloudy
11:54 AM86.0 °F71.1 °F61 %29.88 in10.0 miENE (60°)16.1 mph25.3 mphPartly Cloudy
12:54 PM87.1 °F71.1 °F59 %29.85 in10.0 miNE (40°)20.7 mphMostly Cloudy
1:54 PM86.0 °F71.1 °F61 %29.83 in10.0 miNE (40°)19.6 mph25.3 mphMostly Cloudy
2:54 PM84.9 °F71.1 °F63 %29.81 in10.0 miNE (40°)20.7 mph25.3 mphMostly Cloudy
3:41 PM84.2 °F71.6 °F66 %29.84 in10.0 miNNE (30°)18.4 mphOvercast
3:54 PM84.9 °F72.0 °F65 %29.83 in10.0 miNNE (20°)17.3 mphMostly Cloudy
4:01 PM84.2 °F71.6 °F66 %29.85 in10.0 miNNE (30°)20.7 mphScattered Clouds
4:54 PM82.9 °F73.0 °F72 %29.84 in10.0 miNE (50°)16.1 mphMostly Cloudy
5:54 PM80.1 °F73.0 °F79 %29.87 in10.0 miNE (40°)18.4 mphScattered Clouds
6:33 PM78.8 °F75.2 °F89 %29.90 in5.0 miENE (60°)17.3 mph23.0 mph0.00 inRainLight Rain
6:44 PM78.8 °F75.2 °F89 %29.90 in8.0 miENE (60°)12.7 mph0.00 inOvercast
6:50 PM77.0 °F75.2 °F94 %29.90 in10.0 miNE (50°)11.5 mph0.00 inOvercast
6:54 PM77.0 °F75.0 °F94 %29.88 in10.0 miNE (50°)9.2 mph0.00 inMostly Cloudy
7:54 PM77.0 °F75.0 °F94 %29.91 in10.0 miNE (40°)5.8 mphScattered Clouds
8:54 PM78.1 °F73.9 °F87 %29.91 in10.0 miNE (40°)10.4 mphScattered Clouds
9:54 PM77.0 °F75.0 °F94 %29.91 in10.0 miNE (50°)9.2 mph0.00 inScattered Clouds
10:54 PM78.1 °F75.0 °F90 %29.91 in10.0 miENE (60°)12.7 mphScattered Clouds
11:54 PM78.1 °F73.9 °F87 %29.90 in10.0 miENE (70°)12.7 mphScattered Clouds
Hourly data recorded from PGUM, located miles away from Yigo, Guam







STORIES FROM OUR PARTNERS